Volver al catálogo

STARLINK-3617

ActivoComunicacionesVLEO
NORAD 51780·PAYLOAD·🇺🇸 United States

Lanzado Feb 25, 2022 desde Vandenberg Space Force Base

Loading…

Próximos Pases (próximas 24 horas)

TLE

ActualizadoSource: CelesTrak SupGP

Época: Sep 14, 2026, 22:05 UTC

1 51780C 22017N   26257.92062500 -.00020848  00000+0 -61516-3 0  2571
2 51780  53.1571 197.4724 0001351  88.7142 226.3276 15.34442182    12

Sigue STARLINK-3617 en tiempo real con AllMySat

Download on the App Store